User: anonymous   Login
Location: Bridgewater
(44.3670°N, 64.5170°W)
Time: 06:55:11
(UTC-04:00)
Language:

OPAL - Orbit

View from above orbital plane
View from above orbital plane
View from above satellite
View from above satellite

Ground track
Ground track

The orbit data is extracted from the following two-line orbital elements,

1 26063U 00004C   15030.09681551  .00000213  00000-0  92097-4 0  1691
2 26063 100.2270 223.1663 0036126 238.1431 121.6231 14.36484544786598
Epoch (UTC): 30 January 2015 02:19:24
Eccentricity: 0.0036126
inclination: 100.2270°
perigee height: 744 km
apogee height: 796 km
right ascension of ascending node: 223.1663°
argument of perigee: 238.1431°
revolutions per day: 14.36484544
mean anomaly at epoch: 121.6231°
orbit number at epoch: 78659

The dashed part of the orbit path shows where the satellite is in the earth's shadow,  

DLR